Tracking 27381 objects as of 7-Jun-2023
HD Live streaming from Space Station
objects crossing your sky now

METEOR 1-13

Track METEOR 1-13 now!
10-day predictions
METEOR 1-13 is classified as:


NORAD ID: 6256
Int'l Code: 1972-085A
Perigee: 852.4 km
Apogee: 887.0 km
Inclination: 81.3 °
Period: 102.2 minutes
Semi major axis: 7240 km
RCS: 4.603 m2 (large)
Launch date: October 26, 1972
Source: Commonwealth of Independent States (former USSR) (CIS)
Launch site: PLESETSK MISSILE AND SPACE COMPLEX (PKMTR)
Your satellite tracking list
Your tracking list is empty




NASA's NSSDC Master Catalog

Two Line Element Set (TLE):
1 06256U 72085A   23157.48063041  .00000077  00000-0  37132-4 0  9999
2 06256  81.2697 145.3912 0023856  71.8225 288.5540 14.09067134598995
Source of the keplerian elements: AFSPC